Regional Weather Roundup
Issued by NWS

Home | Current Version | Previous Version | Text Only | Print | Product List | Glossary Off
Versions: 1 2 3 4 5 6 7 8 9 10 11 12 13 14 15 16 17 18 19 20 21 22 23 24 25 26 27 28 29 30 31 32 33 34 35 36 37 38 39 40 41 42 43 44 45 46 47 48

000
ASUS45 KSLC 031110
RWRUT

UTAH REGIONAL WEATHER ROUNDUP
NATIONAL WEATHER SERVICE SALT LAKE CITY UT
400 AM MST TUE MAR 03 2015

UTZ001>011-023>025-031200-

NORTHERN UTAH

CITY           SKY/WX    TMP DP  RH WIND       PRES   REMARKS
BRIGHAM CITY   CLOUDY    35  32  90 S7        29.80S WCI  29
HILL AFB       MIX PCPN  32  32  99 S7        29.78F WCI  26
LOGAN          CLOUDY    32  30  92 E7        29.77F WCI  26
OGDEN          CLOUDY    33  32  96 S7        29.78F WCI  27
PROVO AIRPORT  CLOUDY    34  28  80 NE5       29.82F WCI  30
SALT LAKE CITY CLOUDY    35  32  88 CALM      29.79R
VERNAL         PTCLDY    29  25  85 CALM      29.75S
WENDOVER       CLOUDY    34  25  69 W9        29.78F WCI  26
HEBER CITY     CLOUDY    28  25  86 E5        29.77F WCI  23
WEST JORDAN    CLOUDY    34  32  93 S6        29.79F WCI  29

$$

UTZ012>022-026-027-031200-

SOUTHERN/CENTRAL UTAH

CITY           SKY/WX    TMP DP  RH WIND       PRES   REMARKS
BLANDING       CLOUDY    29  28  96 SW3       29.95F
BRYCE CANYON   CLOUDY    11  10  96 CALM      29.85F
CEDAR CITY     CLOUDY    27  24  89 W7        29.86F WCI  19
DELTA          CLEAR     30  28  92 S10       29.83S WCI  21
HANKSVILLE     CLEAR     37  28  70 SW8       29.85S WCI  31
MILFORD        CLOUDY    32  27  81 S17       29.85F WCI  21
MOAB/CYNLANDS  PTCLDY    35  28  75 S8        29.81S WCI  29
PRICE          PTCLDY    27  22  81 N5        29.78S WCI  22
ST GEORGE      PTSUNNY   39  36  87 CALM      29.95S
KANAB          CLOUDY    32  32 100 CALM      29.94F

$$

REGIONAL REPORTS     COLORADO/ARIZONA

CITY           SKY/WX    TMP DP  RH WIND       PRES   REMARKS
CRAIG, CO      CLOUDY    33  24  69 SW21      29.71R WCI  21
GRAND JUNCTION CLOUDY    34  27  75 VRB6      29.80S WCI  29
RIFLE          CLOUDY    35  26  69 W9        29.78R WCI  28
MONTROSE       MOCLDY    34  23  64 E8        29.84S WCI  27
CORTEZ         CLOUDY    33  27  78 SW7       29.90F WCI  27
PAGE, AZ       NOT AVBL
GRAND CANYON   CLOUDY    27  26  96 SW9       29.92F WCI  18
KINGMAN        CLEAR     33  30  88 SE8       29.92F WCI  26
FLAGSTAFF      NOT AVBL

$$

REGIONAL REPORTS    NEVADA/IDAHO/WYOMING

CITY           SKY/WX    TMP DP  RH WIND       PRES   REMARKS
LAS VEGAS, NV  CLEAR     44  36  73 SW6       29.88F
ELY            PTCLDY    22  21  96 S10       29.83F WCI  11
ELKO           CLOUDY    30  28  92 SW8       29.83S WCI  22
POCATELLO, ID  CLOUDY    31  24  75 SW20      29.77R WCI  19
BURLEY         CLOUDY    30  21  69 W21G31    29.78R WCI  17
EVANSTON, WY   LGT SNOW  22  21  96 SW12      29.72F FOG     WCI  10
ROCK SPRINGS   CLOUDY    20  18  92 E8        29.74R WCI  10
KEMMERER       CLOUDY    23  21  93 W8        29.70S WCI  14

$$


USA.gov is the U.S. government's official web portal to all federal, state and local government web resources and services.